Latest Coastal Weather Observations for Middle Percy Island

IDQ60701

Issued at 2:42 am EST Friday 3 July 2015 (issued every 10 minutes, with the page automatically refreshed every 10 minutes)

About coastal observations | Map of coastal stations | Coastal observations for QLD | Marine services | Other Formats
Station Details ID: 200001 Name: MIDDLE PERCY ISLAND Lat: -21.66 Lon: 150.27 Height: 208.7 m
Data from the previous 72 hours. | See also: Recent months at Middle Percy Island
Date/Time
EST
Temp

°C
Wind Pressure Rain
since 9am
mm
Weather Cloud Vis
km
Sea
Height
m
Swell
Dir
 
Speed
knots
Gust
knots
hPa Trend Height
m
Period
s
Dir
03/02:30am 16.8 - 18 21 1019.1 - - - - - - - - -
03/02:00am 17.0 - 16 19 1018.9 - - - - - - - - -
03/01:30am 17.3 - - - 1019.6 - - - - - - - - -
03/01:00am 17.5 - - - 1019.3 - - - - - - - - -
03/12:30am 17.7 - - - 1019.9 - - - - - - - - -
03/12:00am 18.0 - 16 19 1019.7 - - - - - - - - -
 
Date/Time
EST
Temp

°C
Wind Pressure Rain
since 9am
mm
Weather Cloud Vis
km
Sea
Height
m
Swell
Dir
 
Speed
knots
Gust
knots
hPa Trend Height
m
Period
s
Dir
02/11:30pm 17.9 - - - 1020.6 - - - - - - - - -
02/11:00pm 17.4 - - - 1020.4 - - - - - - - - -
02/10:30pm 17.6 - - - 1021.2 - - - - - - - - -
02/10:00pm 17.6 - - - 1020.7 - - - - - - - - -
02/09:30pm 17.6 - - - 1021.3 - - - - - - - - -
02/09:00pm 17.7 - - - 1020.6 - 0.0 - - - - - - -
02/08:30pm 17.9 - - - 1021.2 - - - - - - - - -
02/08:00pm 17.8 - - - 1020.5 - - - - - - - - -
02/07:30pm 17.9 - - - 1020.8 - - - - - - - - -
02/07:00pm 17.7 - - - 1019.9 - - - - - - - - -
02/06:30pm 17.7 - - - 1020.0 - - - - - - - - -
02/06:00pm 17.4 - - - 1019.3 - - - - - - - - -
02/05:30pm 17.7 - - - 1019.6 - - - - - - - - -
02/05:00pm 18.3 - - - 1019.0 - - - - - - - - -
02/04:30pm 19.1 - - - 1019.5 - - - - - - - - -
02/04:00pm 19.4 - - - 1018.9 - - - - - - - - -
02/03:30pm 19.3 - - - 1019.5 - - - - - - - - -
02/03:00pm 19.7 - - - 1019.0 - 0.0 - - - - - - -
02/02:30pm 19.9 - - - 1019.6 - - - - - - - - -
02/02:00pm 19.9 - - - 1019.2 - - - - - - - - -
02/01:30pm 19.9 - - - 1019.9 - - - - - - - - -
02/01:00pm 20.0 - - - 1019.7 - - - - - - - - -
02/12:30pm 20.1 - - - 1020.5 - - - - - - - - -
02/12:00pm 20.1 - - - 1020.3 - - - - - - - - -
02/11:30am 20.2 - - - 1021.7 - - - - - - - - -
02/11:00am 19.8 - - - 1021.6 - - - - - - - - -
02/10:30am 19.5 - - - 1022.4 - - - - - - - - -
02/10:00am 19.0 - - - 1022.2 - - - - - - - - -
02/09:30am 18.8 - - - 1022.8 - - - - - - - - -
02/09:00am 18.8 - - - 1022.2 - 0.2 - - - - - - -
02/08:30am 18.7 - - - 1022.6 - - - - - - - - -
02/08:00am 18.3 - - - 1021.6 - - - - - - - - -
02/07:30am 17.9 - - - 1021.9 - - - - - - - - -
02/07:00am 18.0 - - - 1021.1 - - - - - - - - -
02/06:30am 17.6 - - - 1021.5 - - - - - - - - -
02/06:00am 17.8 - - - 1020.7 - - - - - - - - -
02/05:30am 18.0 - - - 1021.1 - - - - - - - - -
02/05:00am 18.2 - - - 1020.3 - - - - - - - - -
02/04:30am 18.4 - - - 1020.8 - - - - - - - - -
02/04:00am 18.4 - - - 1020.4 - - - - - - - - -
02/03:30am 18.5 - - - 1020.9 - - - - - - - - -
02/03:00am 18.1 - - - 1020.3 - 0.2 Rain - - - - - -
02/02:30am 18.1 - - - 1021.2 - - - - - - - - -
02/02:00am 18.4 - - - 1020.7 - - - - - - - - -
02/01:30am 18.4 - - - 1021.6 - - - - - - - - -
02/01:00am 18.4 - - - 1021.2 - - - - - - - - -
02/12:30am 18.4 - - - 1022.1 - - - - - - - - -
02/12:00am 18.6 - - - 1021.7 - - - - - - - - -
 
Date/Time
EST
Temp

°C
Wind Pressure Rain
since 9am
mm
Weather Cloud Vis
km
Sea
Height
m
Swell
Dir
 
Speed
knots
Gust
knots
hPa Trend Height
m
Period
s
Dir
01/11:30pm 18.7 - - - 1022.5 - - - - - - - - -
01/11:00pm 18.9 - - - 1022.2 - - - - - - - - -
01/10:30pm 18.9 - - - 1022.6 - - - - - - - - -
01/10:00pm 18.9 - - - 1022.2 - - - - - - - - -
01/09:30pm 18.9 - - - 1022.7 - - - - - - - - -
01/09:00pm 18.8 - - - 1022.2 - 0.0 - - - - - - -
01/08:30pm 18.7 - - - 1022.6 - - - - - - - - -
01/08:00pm 18.9 - - - 1021.7 - - - - - - - - -
01/07:30pm 18.8 - - - 1022.1 - - - - - - - - -
01/07:00pm 18.6 - - - 1021.4 - - - - - - - - -
01/06:30pm 18.7 - - - 1021.7 - - - - - - - - -
01/06:00pm 18.8 - - - 1020.8 - - - - - - - - -
01/05:30pm 18.9 - - - 1021.3 - - - - - - - - -
01/05:00pm 19.1 - - - 1020.4 - - - - - - - - -
01/04:30pm 19.6 - - - 1020.7 - - - - - - - - -
01/04:00pm 19.9 - - - 1020.1 - - - - - - - - -
01/03:30pm 20.1 - - - 1020.8 - - - - - - - - -
01/03:00pm 20.6 - - - 1020.2 - 0.0 - - - - - - -
01/02:30pm 20.6 - - - 1021.0 - - - - - - - - -
01/02:00pm 20.8 - - - 1020.7 - - - - - - - - -
01/01:30pm 21.1 - - - 1021.5 - - - - - - - - -
01/01:00pm 21.3 - - - 1021.3 - - - - - - - - -
01/12:30pm 21.1 - - - 1022.3 - - - - - - - - -
01/12:00pm 21.0 - - - 1022.4 - - - - - - - - -
01/11:30am 20.8 - - - 1023.2 - - - - - - - - -
01/11:00am 20.2 - - - 1023.1 - - - - - - - - -
01/10:30am 19.5 - - - 1023.8 - - - - - - - - -
01/10:00am 19.3 - - - 1023.3 - - - - - - - - -
01/09:30am 20.1 - - - 1023.8 - - - - - - - - -
01/09:00am 19.7 - - - 1023.1 - 0.2 - - - - - - -
01/08:30am 19.1 - - - 1023.5 - - - - - - - - -
01/08:00am 19.0 - - - 1023.0 - - - - - - - - -
01/07:30am 18.7 - - - 1023.4 - - - - - - - - -
01/07:00am 18.7 - - - 1022.6 - - - - - - - - -
01/06:30am 18.6 - - - 1023.2 - - - - - - - - -
01/06:00am 18.6 - - - 1022.3 - - - - - - - - -
01/05:30am 18.6 - - - 1022.6 - - - - - - - - -
01/05:00am 18.5 - - - 1021.8 - - - - - - - - -
01/04:30am 18.6 - - - 1022.5 - - - - - - - - -
01/04:00am 18.3 - - - 1021.5 - - - - - - - - -
01/03:30am 18.2 - - - 1022.3 - - - - - - - - -
01/03:00am 18.0 - - - 1021.6 - 0.0 - - - - - - -
01/02:30am 18.1 - - - 1022.2 - - - - - - - - -
01/02:00am 18.1 - - - 1021.5 - - - - - - - - -
01/01:30am 18.1 - - - 1022.3 - - - - - - - - -
01/01:00am 18.4 - - - 1022.0 - - - - - - - - -
01/12:30am 18.4 - - - 1022.9 - - - - - - - - -
01/12:00am 18.6 - - - 1022.4 - - - - - - - - -
 
Date/Time
EST
Temp

°C
Wind Pressure Rain
since 9am
mm
Weather Cloud Vis
km
Sea
Height
m
Swell
Dir
 
Speed
knots
Gust
knots
hPa Trend Height
m
Period
s
Dir
30/11:30pm 18.5 - - - 1023.3 - - - - - - - - -
30/11:00pm 18.5 - - - 1022.8 - - - - - - - - -
30/10:30pm 18.6 - - - 1023.6 - - - - - - - - -
30/10:00pm 18.5 - - - 1023.0 - - - - - - - - -
30/09:30pm 18.9 - - - 1023.9 - - - - - - - - -
30/09:00pm 18.8 - - - 1023.0 - 0.0 - - - - - - -
30/08:30pm 19.0 - - - 1023.7 - - - - - - - - -
30/08:00pm 19.1 - - - 1023.0 - - - - - - - - -
30/07:30pm 19.0 - - - 1023.4 - - - - - - - - -
30/07:00pm 19.4 - - - 1022.5 - - - - - - - - -
30/06:30pm 19.3 - - - 1023.1 - - - - - - - - -
30/06:00pm 19.4 - - - 1022.1 - - - - - - - - -
30/05:30pm 19.2 - - - 1022.5 - - - - - - - - -
30/05:00pm 19.2 - - - 1021.7 - - - - - - - - -
30/04:30pm 19.5 - - - 1022.1 - - - - - - - - -
30/04:00pm 19.9 - - - 1021.1 - - - - - - - - -
30/03:30pm 20.2 - - - 1021.7 - - - - - - - - -
30/03:00pm 19.9 - - - 1021.3 - 0.2 - - - - - - -
30/02:30pm 20.1 - - - 1021.8 - - - - - - - - -
30/02:00pm 21.2 - - - 1021.2 - - - - - - - - -
30/01:30pm 20.4 - - - 1021.9 - - - - - - - - -
30/01:00pm 21.1 - - - 1021.7 - - - - - - - - -
30/12:30pm 21.4 - - - 1022.8 - - - - - - - - -
30/12:00pm 20.7 - - - 1023.0 - - Recent precip. - - - - - -
30/11:30am 21.3 - - - 1024.1 - - - - - - - - -
30/11:00am 20.7 - - - 1023.6 - - - - - - - - -
30/10:30am 19.9 - - - 1024.3 - - - - - - - - -
30/10:00am 19.2 - - - 1024.0 - - - - - - - - -
30/09:30am 19.1 - - - 1024.7 - - - - - - - - -
30/09:00am 20.1 - - - 1023.9 - 0.2 - - - - - - -
30/08:30am 19.6 - - - 1024.3 - - - - - - - - -
30/08:00am 19.7 - - - 1023.4 - - - - - - - - -
30/07:30am 19.7 - - - 1023.6 - - - - - - - - -
30/07:00am 19.5 - - - 1022.7 - - - - - - - - -
30/06:30am 19.0 - - - 1023.1 - - - - - - - - -
30/06:00am 18.8 - - - 1022.2 - - - - - - - - -
30/05:30am 19.1 - - - 1022.6 - - - - - - - - -
30/05:00am 19.1 - - - 1021.8 - - - - - - - - -
30/04:30am 18.5 - - - 1022.2 - - - - - - - - -
30/04:00am 18.0 - - - 1021.5 - - - - - - - - -
30/03:30am 18.4 - - - 1022.0 - - - - - - - - -
30/03:00am 19.1 - - - 1021.8 - 0.0 - - - - - - -

Other Formats:

Comma delimited format used in spreadsheet applications
http://www.bom.gov.au/fwo/IDQ60701/IDQ60701.94372.axf

JavaScript Object Notation format (JSON) in row-major order
http://www.bom.gov.au/fwo/IDQ60701/IDQ60701.94372.json